Theta_e
318 321 328 316 301 298 293 298 304 302 303 308 310 309 310 312 308 302 327 334 336 340 343 346 347 347 345 345 347 348 348 346 346 347 346 346 345 343 341 341 343 344 344 343 340 340 339 338 336
315 323 315 306 296 291 293 300 302 305 308 311 312 314 313 312 322 326 328 337 338 341 344 345 344 347 345 345 347 348 347 346 345 344 345 345 343 341 340 339 341 341 343 342 339 339 338 336 335
311 314 308 301 295 292 294 301 305 307 308 308 312 316 315 315 321 327 332 338 339 340 344 343 344 347 345 345 347 347 346 347 345 342 341 342 342 340 339 339 340 339 340 340 338 337 336 334 334
307 305 300 297 293 297 299 305 308 307 306 310 313 312 317 325 326 330 339 339 337 340 342 342 346 347 345 344 347 347 346 345 342 342 341 339 340 342 340 339 337 339 337 337 336 334 334 332 332
306 301 293 290 292 296 300 304 308 307 307 307 312 308 313 327 334 337 338 339 337 339 341 344 344 346 346 346 347 346 345 345 344 344 341 340 341 341 341 340 338 337 334 334 334 332 331 330 330
303 298 290 290 293 296 300 304 307 308 309 309 312 310 313 331 332 335 337 338 338 338 341 343 338 340 343 345 345 345 344 345 344 342 340 340 340 340 340 338 336 334 333 333 333 331 330 328 327
299 297 291 293 295 296 300 303 305 305 309 309 316 309 314 327 334 336 336 337 338 340 341 341 340 338 336 339 340 341 342 342 341 340 339 338 337 337 337 338 337 334 333 333 332 330 329 327 326
300 298 293 295 294 295 300 299 305 307 307 315 318 311 312 326 334 335 335 335 337 338 338 338 338 338 338 337 333 335 337 338 338 337 334 332 332 332 332 331 335 335 334 333 331 329 327 327 327
304 294 291 295 296 298 297 298 300 306 307 316 318 316 320 332 334 332 331 333 334 335 334 337 337 337 336 335 331 331 332 332 332 330 328 327 328 328 327 328 333 336 335 333 330 328 327 328 325
301 294 293 299 300 298 296 296 296 306 310 314 314 323 329 331 329 328 327 329 329 330 331 334 336 336 334 337 334 333 332 331 329 328 325 326 325 325 327 324 328 331 331 332 331 329 329 323 318
302 296 298 300 303 299 295 295 296 303 302 307 314 321 325 327 327 328 327 328 328 329 329 333 334 335 332 334 334 331 330 328 328 326 323 321 321 321 322 323 324 323 321 322 325 322 320 317 316
300 304 303 304 304 301 296 296 295 297 301 301 311 325 326 326 326 327 327 328 328 328 329 332 333 333 331 332 333 329 329 327 326 326 323 320 318 317 317 320 320 319 318 317 318 316 316 316 316
301 303 304 304 304 302 300 294 295 296 298 308 322 324 325 326 327 328 329 329 328 327 329 331 333 333 331 331 332 329 328 327 327 325 324 322 319 317 317 316 318 317 316 316 315 314 315 315 316
300 300 301 302 303 302 298 295 295 297 306 311 320 319 323 325 326 325 326 324 325 328 329 331 333 333 332 330 332 330 328 328 327 326 325 323 321 319 318 317 316 316 316 316 315 315 315 315 315
300 295 299 300 302 299 300 295 294 298 302 314 309 318 319 321 322 324 325 324 325 327 329 329 331 334 332 330 330 330 330 330 328 328 327 325 323 320 319 318 317 317 317 316 316 315 314 314 315
295 294 290 298 301 301 299 292 298 299 297 298 310 314 319 319 322 323 325 325 324 325 327 329 332 331 333 330 331 331 330 330 330 329 329 327 325 323 320 319 318 319 318 317 316 315 315 317 318
290 285 287 292 300 298 296 291 298 298 297 296 296 300 309 318 320 322 324 325 324 324 326 327 329 330 331 331 332 332 332 332 331 332 332 331 328 325 322 320 320 320 318 318 318 320 320 319 318
284 285 288 288 294 296 293 292 296 297 295 296 295 295 298 303 315 321 324 325 325 324 326 327 327 329 330 331 332 333 333 333 333 332 331 331 331 329 326 324 323 323 322 321 321 320 320 320 319
289 287 286 290 293 292 291 292 294 297 291 295 296 295 296 296 299 303 306 320 325 324 325 326 326 327 328 325 325 328 327 329 329 330 330 330 329 329 327 326 325 325 323 322 322 321 320 319 321
288 285 285 289 291 291 289 289 293 295 294 291 293 294 295 293 292 299 302 305 317 323 324 326 327 327 328 329 328 326 326 327 330 330 330 330 329 328 327 326 326 326 324 323 322 322 320 320 320
285 284 285 286 288 289 286 282 288 291 293 292 291 292 295 293 292 296 296 296 298 301 303 308 322 327 328 328 326 326 327 329 329 329 328 329 330 329 328 327 327 327 326 324 324 323 321 319 319
282 288 286 285 284 280 283 276 283 287 289 290 292 291 291 292 293 292 292 292 293 295 299 302 311 326 327 327 327 327 326 324 327 329 329 329 330 330 329 329 328 328 327 326 325 325 323 321 318
285 290 287 285 282 280 280 276 280 284 283 287 288 291 290 289 289 288 289 290 291 292 294 297 303 307 311 318 327 328 327 328 326 326 327 328 329 330 330 330 329 328 327 326 325 323 323 323 321
290 286 285 283 281 275 278 276 277 280 283 286 290 290 289 288 288 287 288 289 289 289 290 293 296 299 305 310 313 317 325 324 323 325 325 325 326 327 325 327 328 327 326 325 325 325 324 323 323
286 283 275 273 270 272 276 276 279 284 287 288 289 287 287 288 287 286 285 285 286 286 287 290 291 292 297 302 302 305 309 315 322 322 322 323 321 314 308 311 312 315 316 320 323 324 323 322 322
284 282 276 266 267 273 279 275 278 286 288 287 287 287 286 285 285 284 284 283 283 284 285 286 287 288 290 295 296 298 300 305 305 305 306 305 303 303 305 306 307 307 308 308 308 306 306 304 302
284 280 283 276 269 273 277 278 284 288 287 286 285 285 284 284 283 283 282 282 282 282 283 284 285 286 287 289 293 294 295 297 299 301 302 302 302 303 303 302 302 302 305 304 303 301 300 300 299
285 286 278 275 267 267 274 277 277 283 285 285 283 283 283 283 282 281 280 280 280 281 282 283 284 284 286 288 291 291 292 293 293 294 295 295 296 296 296 296 296 295 295 296 296 294 294 293 293
283 280 280 279 276 270 270 275 285 285 286 286 284 284 283 282 281 280 280 280 280 281 281 281 282 283 284 287 288 289 289 290 290 290 290 290 291 292 292 292 292 291 291 292 291 290 289 288 288
285 282 282 276 272 274 276 275 286 286 286 287 285 285 283 282 280 279 279 279 279 279 280 281 282 282 283 286 287 287 287 288 287 287 287 288 288 288 289 289 288 288 288 288 287 285 285 285 284
Wind_Speed
3 4 3 4 3 4 3 6 3 3 3 4 2 5 9 4 6 6 2 4 14 16 10 12 17 18 17 17 15 15 16 17 17 17 16 18 18 18 17 15 13 15 16 19 15 15 16 15 14
0 4 4 2 4 3 5 4 6 5 5 4 1 1 4 3 2 6 7 7 15 15 11 13 16 18 17 17 14 15 17 17 17 17 17 17 17 17 16 14 13 13 14 16 14 14 14 14 13
4 3 2 4 3 5 5 5 6 3 5 3 3 4 2 3 2 10 5 13 14 14 10 12 16 18 17 16 14 15 15 17 17 16 15 15 15 15 16 14 13 13 12 15 13 13 14 13 13
1 2 3 3 6 6 5 5 5 2 3 4 2 5 3 4 7 5 13 14 14 12 10 14 17 17 17 15 13 15 15 15 16 15 14 14 14 14 14 14 11 11 14 12 13 12 13 12 13
3 3 2 3 4 5 5 4 4 1 1 3 3 1 3 4 8 15 15 12 15 10 10 14 16 17 16 15 13 14 15 16 15 14 14 14 13 12 13 15 12 9 11 13 11 11 11 11 11
1 3 2 4 4 4 5 6 4 4 3 3 4 1 2 3 12 12 15 13 14 12 9 12 13 13 14 13 12 13 15 15 14 13 13 12 11 10 14 16 14 11 11 10 9 9 9 9 10
4 4 4 3 4 3 4 2 5 4 4 5 9 3 1 5 9 10 13 13 11 10 9 9 10 11 12 11 11 12 14 13 13 13 12 11 9 8 8 13 12 11 10 9 7 7 7 8 9
2 3 4 4 4 6 3 2 7 8 2 3 3 6 6 8 12 12 12 12 12 11 12 8 8 8 8 7 11 12 11 11 11 10 9 9 8 7 7 8 10 11 9 7 6 4 5 6 8
5 1 6 5 6 5 2 2 4 4 4 3 2 3 1 17 14 13 11 10 10 10 11 8 8 8 7 6 7 10 11 11 10 9 8 7 4 5 6 5 8 10 8 7 5 3 3 5 7
4 3 8 3 0 3 3 2 2 4 4 4 0 5 13 16 17 15 15 13 11 12 10 10 9 9 7 6 7 5 6 4 5 5 5 4 5 4 4 4 7 8 6 6 4 2 3 5 3
5 4 4 2 4 3 3 1 2 6 4 7 6 12 16 16 13 14 12 14 11 11 10 10 11 9 7 5 4 3 3 3 4 6 5 4 4 3 3 2 2 2 3 1 1 2 1 1 2
10 6 9 2 5 3 3 8 1 2 4 1 5 16 15 17 14 13 12 13 14 12 13 11 11 11 6 5 4 4 3 3 3 4 6 4 3 3 3 3 4 3 2 2 1 1 1 2 2
7 4 7 10 7 4 1 4 2 3 2 3 11 14 14 13 13 12 13 13 13 13 13 13 11 11 7 7 5 4 4 4 4 4 5 4 4 4 4 3 3 3 3 3 3 2 2 3 3
4 1 5 8 10 7 2 3 3 2 2 7 9 8 14 16 13 7 10 11 13 13 14 13 10 12 8 7 9 6 4 4 4 4 4 6 4 4 4 4 4 4 4 3 3 3 2 3 2
7 3 7 8 6 6 2 5 7 4 5 6 8 7 7 9 8 12 11 10 12 10 12 14 12 10 11 7 6 5 5 5 5 4 5 6 5 5 5 4 4 4 3 3 2 2 1 2 2
6 4 3 7 2 5 5 6 10 5 5 4 3 3 7 6 11 7 8 9 8 7 11 11 10 13 11 8 7 5 5 5 5 5 4 7 6 6 5 4 4 4 3 3 3 3 3 3 3
3 3 3 0 3 4 3 3 3 1 6 5 5 5 6 5 6 6 7 8 10 10 10 9 9 13 11 9 7 7 8 6 6 5 5 7 7 7 5 4 4 4 3 3 3 3 3 3 3
6 4 3 2 3 1 4 9 8 4 4 7 4 4 6 6 8 6 7 6 7 7 8 10 9 10 10 6 6 5 6 6 5 5 5 7 6 8 7 5 5 4 3 3 3 4 3 3 2
12 4 3 5 3 2 5 10 11 6 1 4 6 6 6 7 1 5 5 4 7 8 7 9 10 9 8 4 4 4 5 4 5 5 8 7 7 8 8 5 5 5 5 6 6 3 4 3 2
7 5 4 4 7 3 1 11 16 7 4 4 5 6 6 1 5 6 8 8 3 2 5 7 9 9 9 7 6 3 3 3 5 6 7 7 7 8 7 7 7 7 5 5 5 4 2 2 3
1 8 6 3 5 4 6 4 9 4 4 4 2 2 4 4 5 7 9 9 8 8 7 5 3 7 6 6 3 2 2 2 2 2 3 5 7 7 8 8 7 6 6 6 6 5 6 3 3
5 5 5 8 6 1 1 4 4 5 6 4 6 2 7 8 7 7 8 9 9 8 7 7 7 2 5 6 6 9 6 5 4 6 6 7 10 9 9 8 8 7 5 6 6 6 6 4 5
4 6 5 4 5 3 5 2 5 2 4 4 7 7 8 7 7 7 8 7 6 9 9 8 8 10 9 7 4 6 7 4 1 2 4 4 5 8 8 8 8 7 6 6 7 6 7 7 7
9 5 5 4 3 3 6 5 5 3 3 5 3 5 7 7 6 7 7 8 9 9 10 9 9 10 10 8 8 5 3 4 3 3 3 3 2 0 3 2 3 5 5 6 7 9 9 9 8
3 15 2 2 2 4 1 2 5 4 4 3 3 6 8 6 7 8 10 10 10 11 10 9 10 10 10 8 9 9 7 4 2 1 2 2 2 3 6 5 6 4 5 4 3 4 4 4 7
3 4 5 7 3 4 1 5 3 3 4 6 8 8 9 8 7 8 9 8 8 8 9 8 9 8 9 8 8 8 9 5 4 5 5 5 5 4 5 6 6 8 8 7 7 5 5 7 9
4 3 2 7 1 2 4 3 4 3 5 6 5 6 6 5 6 6 8 6 7 7 8 7 8 7 8 7 7 8 8 8 7 7 7 6 6 5 7 8 8 8 7 7 7 7 7 6 9
5 7 2 3 3 2 1 1 2 4 4 3 3 4 3 3 5 5 5 5 5 5 4 7 7 7 7 7 8 8 8 8 8 8 8 8 7 6 8 8 8 10 9 8 10 9 8 10 7
3 2 4 5 3 3 3 2 1 2 5 4 4 4 3 3 4 3 4 4 4 5 6 6 7 8 7 8 8 8 8 8 8 8 8 8 8 7 8 8 8 9 10 8 9 9 9 12 10
1 3 3 4 3 1 2 2 2 2 3 4 4 4 3 3 3 3 3 4 5 5 5 6 6 6 6 6 7 8 8 8 8 9 8 8 9 9 8 8 8 9 10 10 10 10 9 11 9
Wind_Direction
353 137 89 42 76 71 231 245 226 232 294 208 240 155 179 124 165 208 140 156 133 138 144 148 142 141 138 139 137 131 128 120 112 115 115 120 116 108 103 99 96 94 103 102 98 97 95 90 84
220 111 34 82 110 136 251 229 233 237 232 159 56 335 95 163 93 123 125 155 143 137 142 145 141 140 139 140 139 132 131 124 112 110 111 113 112 112 108 106 105 103 94 97 98 97 93 83 74
162 107 120 137 155 196 210 206 217 255 258 191 99 68 94 134 58 149 128 144 140 137 138 142 142 140 142 144 142 136 133 126 123 118 118 118 118 116 112 111 112 113 102 97 104 97 92 82 78
66 53 25 132 219 250 214 246 133 287 74 66 44 82 47 327 145 137 135 137 134 135 128 143 143 143 145 146 145 137 138 129 132 129 124 123 122 119 119 113 104 111 123 109 99 94 92 86 84
41 59 165 211 236 258 241 260 151 5 177 64 57 220 49 29 98 130 134 136 137 135 133 144 143 144 145 147 147 141 143 135 133 133 130 130 131 133 127 118 108 108 112 104 101 96 93 88 81
88 103 125 211 233 245 247 247 185 123 45 68 77 107 139 123 130 140 141 138 143 142 139 140 136 137 142 145 145 149 146 136 134 134 132 132 130 121 132 121 120 115 112 108 100 94 87 79 73
148 108 212 202 224 249 237 212 132 91 39 312 137 130 334 154 137 136 141 136 134 140 135 135 138 139 136 135 134 139 137 137 135 137 135 133 127 115 97 128 129 125 122 113 103 89 74 71 64
99 86 217 212 189 239 225 270 144 104 118 142 161 185 206 174 141 129 134 134 134 145 149 136 132 134 134 141 137 137 138 134 134 136 135 135 131 126 111 106 115 131 130 124 113 96 75 57 51
15 151 213 195 172 239 154 194 355 18 341 68 256 139 260 137 139 126 134 134 137 147 156 148 140 131 129 133 145 140 138 137 137 133 130 121 120 127 124 131 131 131 133 140 134 117 79 54 31
135 231 194 205 239 276 325 158 174 121 196 229 270 53 139 145 149 148 154 153 153 154 158 162 152 147 133 143 146 136 136 136 134 129 129 137 142 141 141 148 158 135 149 149 155 154 73 53 23
154 200 224 113 52 1 303 296 171 133 190 222 187 158 157 155 154 152 153 164 160 156 162 170 164 156 138 140 145 130 132 135 138 139 137 124 112 116 119 122 92 106 105 50 96 48 50 15 9
198 206 294 46 7 338 346 312 87 255 159 322 187 170 154 162 164 157 159 165 165 166 169 168 170 165 142 138 153 142 144 143 146 156 152 143 144 149 145 151 161 159 166 181 187 220 277 308 298
206 145 273 336 332 309 52 265 242 190 339 72 129 163 165 165 168 167 166 169 170 171 171 178 169 171 157 153 149 143 154 156 160 161 167 153 162 169 159 172 171 181 175 189 205 222 254 275 293
118 261 277 308 327 289 98 291 277 113 123 124 150 172 172 173 173 149 161 162 173 169 170 178 175 179 161 161 175 166 155 162 162 170 179 177 171 171 181 177 191 198 195 198 208 217 229 258 273
115 315 281 258 286 297 65 290 241 153 95 126 188 178 171 177 166 179 172 174 174 177 163 177 179 176 173 163 163 169 177 169 176 187 183 185 179 183 184 189 196 208 194 202 222 254 262 283 281
125 360 214 232 270 281 105 251 249 200 122 125 169 180 177 189 187 184 176 165 168 158 171 169 177 185 175 169 169 169 176 180 190 187 185 188 189 184 184 195 215 201 185 188 208 216 240 241 233
10 164 228 342 106 337 142 229 344 263 167 189 203 204 225 191 196 193 183 177 171 170 164 169 175 184 179 175 176 187 191 191 200 197 193 197 188 182 182 200 217 185 194 202 204 217 218 240 252
153 153 220 175 41 65 301 290 295 312 159 187 210 225 218 242 226 197 208 182 173 165 172 171 176 181 180 176 185 190 185 190 184 185 191 186 188 190 186 193 205 186 185 205 195 220 224 240 260
117 94 155 97 49 30 341 293 298 304 249 231 208 231 247 241 271 48 11 223 169 164 162 178 178 182 168 161 166 183 187 181 188 181 190 187 185 184 185 188 199 178 197 206 204 197 230 260 211
123 110 251 111 114 208 205 293 290 293 259 205 203 189 224 163 84 32 22 31 43 165 203 199 195 183 185 185 186 169 171 191 188 189 187 189 185 180 188 188 199 196 195 211 193 189 201 229 179
67 178 191 148 113 329 348 258 249 279 249 152 244 194 92 150 111 38 34 25 29 39 18 351 284 208 202 160 140 120 97 82 124 161 181 189 188 189 192 196 198 195 193 204 204 197 199 221 217
122 182 203 135 113 67 305 300 235 213 251 206 198 209 70 62 50 35 25 30 15 11 9 17 0 245 192 186 182 207 197 198 190 183 191 192 193 200 197 197 196 204 199 204 203 200 208 199 224
146 142 139 116 115 146 166 212 259 145 226 254 61 70 65 60 57 39 24 18 13 9 9 11 24 31 11 351 212 210 226 240 173 148 168 197 208 202 201 197 199 208 205 206 202 196 205 204 220
135 95 58 67 107 242 191 170 280 113 8 68 69 71 73 65 56 45 22 19 15 11 10 15 23 35 13 8 2 352 259 201 185 187 201 221 224 187 28 313 224 217 212 210 214 218 214 216 221
122 147 88 53 359 216 339 126 252 24 21 300 205 109 90 61 51 41 29 15 13 14 10 11 18 27 19 20 17 1 357 6 338 358 315 179 108 46 34 35 31 25 11 359 300 244 259 288 250
148 167 150 168 169 188 155 216 292 47 51 43 60 83 76 66 50 49 43 26 11 10 15 13 21 22 15 30 30 13 15 20 36 58 63 53 55 58 43 54 54 47 35 35 58 47 68 66 72
169 183 144 105 233 123 180 237 96 90 66 67 65 59 62 57 51 44 44 29 18 7 15 11 17 23 23 20 40 35 26 30 31 38 73 71 65 64 46 52 51 42 35 67 49 61 31 54 55
159 155 91 20 137 192 15 273 119 6 15 142 143 123 113 94 62 46 43 26 15 11 356 20 25 27 19 27 37 46 38 37 42 40 49 68 62 60 74 63 64 56 58 46 69 59 49 60 57
88 86 47 108 85 144 125 262 156 340 311 215 178 184 156 107 90 65 53 40 24 18 21 22 24 23 22 31 37 48 45 43 56 52 46 59 65 65 63 67 68 77 70 56 79 77 75 77 58
74 138 128 125 260 29 100 293 337 53 341 125 179 176 157 124 108 90 65 44 37 30 22 26 25 32 17 34 45 49 52 50 57 58 52 55 59 50 61 65 70 67 66 72 71 70 67 73 70